Huntsville, TX

11:40 PM CDT on May 21, 2018 (GMT -0500)
Huntsville Municipal

Weather History for KUTS - June, 2013

Change the Weather History Date:

Wednesday, June 19, 2013

  Actual Average (WUND) Record (WUND)
Temperature  
Mean Temperature 82 °F -  
Max Temperature 91 °F - - (-1)
Min Temperature 73 °F - - (-1)
Cooling Degree Days 17    
Growing Degree Days 32 (Base 50)    
Moisture  
Dew Point 73 °F    
Average Humidity 78    
Maximum Humidity 94    
Minimum Humidity 55    
Precipitation  
Precipitation 0.01 in - - ()
Sea Level Pressure  
Sea Level Pressure 29.97 in    
Wind  
Wind Speed 2 mph (SSE)    
Max Wind Speed 7 mph    
Max Gust Speed -    
Visibility 10 miles    
Events Rain    
Averages and records for this station are not official NWS values.
T = Trace of Precipitation, MM = Missing Value Source: NWS Daily Summary

Daily Weather History Graph

Daily Weather History Graph

Search for Another Location

Airport or City:

Astronomy

Jun. 19, 2013 Rise Set
Actual Time 6:19 AM CDT 8:28 PM CDT
Civil Twilight 5:51 AM CDT 8:55 PM CDT
Nautical Twilight 5:18 AM CDT 9:29 PM CDT
Astronomical Twilight 4:41 AM CDT 10:05 PM CDT
Moon 4:32 PM CDT (6/19) 2:52 AM CDT (6/19)
Length of Visible Light 15h 03m
Length of Day
14h 08m
Waxing Gibbous, 80% of the Moon is Illuminated
Jun 19
Waxing Gibbous
Jun 23
Full
Jun 29
Last Quarter
Jul 8
New
Jul 15
First Quarter

Hourly Weather History & Observations

Time (CDT) Temp. Heat Index Dew Point Humidity Pressure Visibility Wind Dir Wind Speed Gust Speed Precip Events Conditions
12:53 AM 75.0 °F - 71.1 °F 87% 29.95 in 10.0 mi Calm Calm - N/A   Partly Cloudy
1:53 AM 75.0 °F - 72.0 °F 90% 29.94 in 10.0 mi South 3.5 mph - N/A   Scattered Clouds
2:53 AM 73.9 °F - 71.1 °F 91% 29.93 in 10.0 mi South 5.8 mph - N/A   Clear
3:53 AM 73.9 °F - 71.1 °F 91% 29.93 in 10.0 mi South 3.5 mph - N/A   Clear
4:53 AM 73.9 °F - 72.0 °F 93% 29.94 in 10.0 mi Calm Calm - N/A   Overcast
5:53 AM 73.9 °F - 72.0 °F 93% 29.95 in 10.0 mi Calm Calm - N/A   Mostly Cloudy
6:18 AM 73.4 °F - 71.6 °F 94% 29.97 in 9.0 mi Calm Calm - N/A   Mostly Cloudy
6:53 AM 73.9 °F - 72.0 °F 93% 29.97 in 7.0 mi Calm Calm - N/A   Overcast
7:22 AM 73.4 °F - 71.6 °F 94% 29.99 in 8.0 mi Calm Calm - N/A   Overcast
7:53 AM 75.0 °F - 72.0 °F 90% 29.98 in 8.0 mi Calm Calm - N/A   Overcast
8:40 AM 77.0 °F - 73.4 °F 89% 30.00 in 9.0 mi Calm Calm - N/A   Overcast
8:53 AM 77.0 °F - 73.0 °F 88% 29.99 in 10.0 mi Calm Calm - N/A   Overcast
9:30 AM 80.6 °F 85.4 °F 73.4 °F 79% 30.01 in 10.0 mi Variable 4.6 mph - N/A   Mostly Cloudy
9:53 AM 82.0 °F 88.6 °F 75.0 °F 79% 29.99 in 10.0 mi SSW 6.9 mph - N/A   Mostly Cloudy
10:16 AM 82.4 °F 88.2 °F 73.4 °F 74% 30.01 in 10.0 mi WSW 4.6 mph - N/A   Mostly Cloudy
10:39 AM 82.4 °F 87.2 °F 71.6 °F 70% 30.01 in 10.0 mi West 4.6 mph - N/A   Scattered Clouds
10:53 AM 84.0 °F 90.2 °F 73.0 °F 69% 29.99 in 10.0 mi South 4.6 mph - N/A   Scattered Clouds
11:53 AM 82.0 °F 87.9 °F 73.9 °F 76% 30.00 in 6.0 mi Calm Calm - 0.01 in Rain Rain
12:04 PM 82.4 °F 89.5 °F 75.2 °F 79% 30.01 in 10.0 mi SW 4.6 mph - 0.00 in   Overcast
12:53 PM 86.0 °F 93.0 °F 73.0 °F 65% 29.98 in 10.0 mi Calm Calm - 0.00 in   Scattered Clouds
1:53 PM 86.0 °F 95.1 °F 75.0 °F 70% 29.97 in 10.0 mi ENE 3.5 mph - N/A   Scattered Clouds
2:53 PM 89.1 °F 97.0 °F 73.0 °F 59% 29.95 in 10.0 mi Variable 3.5 mph - N/A   Clear
3:53 PM 91.9 °F 101.3 °F 73.9 °F 55% 29.94 in 10.0 mi ESE 3.5 mph - N/A   Clear
4:53 PM 91.0 °F 100.4 °F 73.9 °F 57% 29.93 in 10.0 mi East 3.5 mph - N/A   Clear
5:53 PM 90.0 °F 100.2 °F 75.0 °F 61% 29.92 in 10.0 mi East 4.6 mph - N/A   Clear
6:53 PM 89.1 °F 98.0 °F 73.9 °F 61% 29.92 in 10.0 mi East 4.6 mph - N/A   Clear
7:53 PM 86.0 °F 95.1 °F 75.0 °F 70% 29.94 in 10.0 mi ESE 3.5 mph - N/A   Clear
8:53 PM 84.0 °F 89.0 °F 71.1 °F 65% 29.95 in 10.0 mi ESE 3.5 mph - N/A   Clear
9:53 PM 82.0 °F 86.7 °F 72.0 °F 71% 29.95 in 10.0 mi Variable 4.6 mph - N/A   Clear
10:53 PM 81.0 °F 85.8 °F 73.0 °F 77% 29.97 in 10.0 mi Variable 4.6 mph - N/A   Clear
11:53 PM 80.1 °F 84.2 °F 73.0 °F 79% 29.99 in 10.0 mi SSE 6.9 mph - N/A   Clear